When you browse on this site, cookies collect data to enhance your experience and personalize the content and advertising you see.
Visit our Privacy Policy to learn more. By continuing to use the site, you agree to this use of cookies and data.
EN

Hourly Weather Almeirim

Today, 10 August, Monday

Time Temperature Precipitation Wind Pressure Humidity
00:00 +17°C° 0 mm 3 mps 759 mmHg 94%
01:00 +17°C° 0 mm 3 mps 758 mmHg 94%
02:00 +17°C° 0 mm 3 mps 758 mmHg 94%
03:00 +17°C° 0 mm 2 mps 758 mmHg 94%
04:00 +17°C° 0 mm 2 mps 758 mmHg 95%
05:00 +16°C° 0 mm 2 mps 758 mmHg 95%
06:00 +19°C° 0 mm 2 mps 758 mmHg 86%
07:00 +21°C° 0 mm 3 mps 758 mmHg 76%
08:00 +24°C° 0 mm 3 mps 758 mmHg 67%
09:00 +26°C° 0 mm 3 mps 758 mmHg 58%
10:00 +28°C° 0 mm 3 mps 758 mmHg 50%
11:00 +30°C° 0 mm 4 mps 757 mmHg 42%
12:00 +32°C° 0 mm 4 mps 757 mmHg 42%
13:00 +32°C° 0 mm 5 mps 757 mmHg 42%
14:00 +32°C° 0 mm 6 mps 756 mmHg 42%
15:00 +29°C° 0 mm 6 mps 756 mmHg 49%
16:00 +27°C° 0 mm 6 mps 756 mmHg 55%
17:00 +26°C° 0 mm 6 mps 756 mmHg 62%
18:00 +23°C° 0 mm 5 mps 756 mmHg 72%
19:00 +21°C° 0 mm 4 mps 756 mmHg 81%
20:00 +19°C° 0 mm 3 mps 757 mmHg 91%
21:00 +18°C° 0 mm 3 mps 757 mmHg 93%
22:00 +18°C° 0 mm 2 mps 757 mmHg 94%
23:00 +18°C° 0 mm 2 mps 757 mmHg 96%

Tomorrow, 11 August, Tuesday

Time Temperature Precipitation Wind Pressure Humidity
00:00 +18°C° 0 mm 2 mps 757 mmHg 96%
01:00 +18°C° 0 mm 2 mps 756 mmHg 95%
02:00 +18°C° 0 mm 1 mps 756 mmHg 95%
03:00 +19°C° 0 mm 1 mps 756 mmHg 93%
04:00 +19°C° 0 mm 1 mps 756 mmHg 91%
05:00 +20°C° 0 mm 1 mps 756 mmHg 89%
06:00 +21°C° 0 mm 1 mps 756 mmHg 82%
07:00 +23°C° 0 mm 1 mps 757 mmHg 75%
08:00 +24°C° 0 mm 2 mps 757 mmHg 68%
09:00 +26°C° 0 mm 2 mps 757 mmHg 60%
10:00 +28°C° 0 mm 2 mps 757 mmHg 51%
11:00 +30°C° 0 mm 3 mps 757 mmHg 43%
12:00 +30°C° 0 mm 4 mps 757 mmHg 44%
13:00 +30°C° 0 mm 5 mps 757 mmHg 46%
14:00 +30°C° 0 mm 6 mps 757 mmHg 47%
15:00 +28°C° 0 mm 6 mps 756 mmHg 53%
16:00 +27°C° 0 mm 6 mps 756 mmHg 60%
17:00 +24°C° 0 mm 6 mps 756 mmHg 66%
18:00 +23°C° 0 mm 5 mps 757 mmHg 73%
19:00 +21°C° 0 mm 5 mps 758 mmHg 80%
20:00 +20°C° 0 mm 4 mps 758 mmHg 87%
21:00 +20°C° 0 mm 4 mps 758 mmHg 86%
22:00 +20°C° 0 mm 4 mps 758 mmHg 85%
23:00 +21°C° 0 mm 4 mps 759 mmHg 85%

Day after tomorrow, 12 August, Wednesday

Time Temperature Precipitation Wind Pressure Humidity
00:00 +20°C° 0 mm 4 mps 758 mmHg 85%
01:00 +20°C° 0 mm 4 mps 758 mmHg 86%
02:00 +20°C° 0 mm 4 mps 758 mmHg 86%
03:00 +20°C° 0.1 mm 3 mps 758 mmHg 88%
04:00 +20°C° 0.1 mm 3 mps 758 mmHg 89%
05:00 +20°C° 0.1 mm 3 mps 758 mmHg 90%
06:00 +21°C° 0.1 mm 3 mps 759 mmHg 86%
07:00 +21°C° 0.1 mm 4 mps 759 mmHg 82%
08:00 +22°C° 0.1 mm 4 mps 759 mmHg 78%
09:00 +23°C° 0.1 mm 4 mps 759 mmHg 73%
10:00 +25°C° 0.1 mm 5 mps 760 mmHg 68%
11:00 +26°C° 0.1 mm 5 mps 760 mmHg 64%
12:00 +26°C° 0 mm 6 mps 760 mmHg 62%
13:00 +26°C° 0 mm 6 mps 760 mmHg 61%
14:00 +26°C° 0 mm 6 mps 759 mmHg 59%
15:00 +26°C° 0 mm 6 mps 759 mmHg 61%
16:00 +24°C° 0 mm 6 mps 759 mmHg 64%
17:00 +23°C° 0 mm 6 mps 759 mmHg 66%
18:00 +22°C° 0 mm 5 mps 760 mmHg 73%
19:00 +20°C° 0 mm 4 mps 760 mmHg 80%
20:00 +18°C° 0 mm 4 mps 761 mmHg 87%
21:00 +18°C° 0 mm 4 mps 761 mmHg 89%
22:00 +17°C° 0 mm 3 mps 761 mmHg 92%
23:00 +17°C° 0 mm 3 mps 761 mmHg 94%

13 August, Thursday

Time Temperature Precipitation Wind Pressure Humidity
00:00 +17°C° 0 mm 3 mps 761 mmHg 94%
01:00 +17°C° 0 mm 3 mps 760 mmHg 95%
02:00 +17°C° 0 mm 3 mps 760 mmHg 95%
03:00 +17°C° 0 mm 3 mps 760 mmHg 95%
04:00 +16°C° 0 mm 3 mps 760 mmHg 95%
05:00 +16°C° 0 mm 3 mps 760 mmHg 95%
06:00 +19°C° 0 mm 3 mps 761 mmHg 82%
07:00 +21°C° 0 mm 4 mps 761 mmHg 68%
08:00 +25°C° 0 mm 4 mps 761 mmHg 55%
09:00 +27°C° 0 mm 5 mps 761 mmHg 48%
10:00 +28°C° 0 mm 5 mps 761 mmHg 41%
11:00 +30°C° 0 mm 6 mps 760 mmHg 34%
12:00 +30°C° 0 mm 6 mps 760 mmHg 34%
13:00 +30°C° 0 mm 7 mps 760 mmHg 34%
14:00 +30°C° 0 mm 7 mps 760 mmHg 34%
15:00 +28°C° 0 mm 7 mps 760 mmHg 39%
16:00 +26°C° 0 mm 7 mps 760 mmHg 44%
17:00 +24°C° 0 mm 7 mps 760 mmHg 50%
18:00 +22°C° 0 mm 6 mps 760 mmHg 60%
19:00 +20°C° 0 mm 5 mps 760 mmHg 70%
20:00 +18°C° 0 mm 4 mps 761 mmHg 80%
21:00 +18°C° 0 mm 4 mps 761 mmHg 84%
22:00 +17°C° 0 mm 4 mps 761 mmHg 87%
23:00 +17°C° 0 mm 4 mps 761 mmHg 91%

14 August, Friday

Time Temperature Precipitation Wind Pressure Humidity
00:00 +17°C° 0 mm 4 mps 760 mmHg 92%
01:00 +16°C° 0 mm 3 mps 760 mmHg 92%
02:00 +16°C° 0 mm 3 mps 760 mmHg 93%
03:00 +16°C° 0 mm 3 mps 760 mmHg 93%
04:00 +14°C° 0 mm 3 mps 760 mmHg 94%
05:00 +14°C° 0 mm 3 mps 760 mmHg 94%
06:00 +18°C° 0 mm 4 mps 760 mmHg 82%
07:00 +20°C° 0 mm 4 mps 760 mmHg 69%
08:00 +22°C° 0 mm 5 mps 760 mmHg 56%
09:00 +25°C° 0 mm 5 mps 760 mmHg 50%
10:00 +27°C° 0 mm 6 mps 760 mmHg 44%
11:00 +28°C° 0 mm 6 mps 759 mmHg 37%
12:00 +28°C° 0 mm 6 mps 759 mmHg 38%
13:00 +28°C° 0 mm 7 mps 759 mmHg 39%
14:00 +28°C° 0 mm 7 mps 759 mmHg 39%
15:00 +27°C° 0 mm 7 mps 759 mmHg 43%
16:00 +24°C° 0 mm 7 mps 759 mmHg 48%
17:00 +23°C° 0 mm 7 mps 759 mmHg 52%
18:00 +21°C° 0 mm 6 mps 759 mmHg 60%
19:00 +19°C° 0 mm 5 mps 760 mmHg 68%
20:00 +17°C° 0 mm 4 mps 760 mmHg 77%
21:00 +17°C° 0 mm 4 mps 760 mmHg 80%
22:00 +17°C° 0 mm 4 mps 760 mmHg 82%
23:00 +15°C° 0 mm 4 mps 760 mmHg 85%

15 August, Saturday

Time Temperature Precipitation Wind Pressure Humidity
00:00 +15°C° 0 mm 4 mps 759 mmHg 86%
01:00 +15°C° 0 mm 4 mps 759 mmHg 86%
02:00 +15°C° 0 mm 4 mps 759 mmHg 86%
03:00 +15°C° 0 mm 4 mps 759 mmHg 87%
04:00 +15°C° 0 mm 4 mps 759 mmHg 88%
05:00 +15°C° 0 mm 4 mps 759 mmHg 88%
06:00 +17°C° 0 mm 5 mps 759 mmHg 77%
07:00 +20°C° 0 mm 6 mps 759 mmHg 65%
08:00 +22°C° 0 mm 6 mps 760 mmHg 53%
09:00 +24°C° 0 mm 7 mps 760 mmHg 47%
10:00 +26°C° 0 mm 7 mps 760 mmHg 41%
11:00 +28°C° 0 mm 7 mps 760 mmHg 35%
12:00 +28°C° 0 mm 8 mps 759 mmHg 36%
13:00 +28°C° 0 mm 8 mps 759 mmHg 36%
14:00 +28°C° 0 mm 8 mps 759 mmHg 37%
15:00 +27°C° 0 mm 8 mps 759 mmHg 43%
16:00 +24°C° 0 mm 8 mps 759 mmHg 50%
17:00 +23°C° 0 mm 7 mps 759 mmHg 56%
18:00 +21°C° 0 mm 7 mps 760 mmHg 65%
19:00 +20°C° 0 mm 6 mps 760 mmHg 74%
20:00 +17°C° 0 mm 5 mps 761 mmHg 83%
21:00 +18°C° 0 mm 4 mps 761 mmHg 86%
22:00 +18°C° 0 mm 4 mps 761 mmHg 89%
23:00 +17°C° 0 mm 4 mps 761 mmHg 92%
Show more